カタログに戻る

COSMOS 1275 DEB

運用中PO
NORAD 14557·DEBRIS·🇷🇺 Russia

打ち上げ Jun 4, 1981 から Plesetsk Cosmodrome

Loading…

次のパス (今後24時間)

TLE

最新Source: Space-Track

元期: Sep 14, 2026, 05:59 UTC

1 14557U 81053JM  26257.24998509  .00003322  00000-0  12045-2 0  9991
2 14557  82.7845 252.3483 0034982 346.2158  27.1734 14.32814548292579

AllMySatでCOSMOS 1275 DEBをリアルタイム追跡

Download on the App Store